{"data":{"norad_id":40107,"intl_designator":"2014-046A","name":"ASIASAT 8 (AMOS-7)","alt_names":[],"object_type":"PAYLOAD","status":"ACTIVE","operator":null,"country":"AC","launch_date":"2014-08-05","launch_site_code":"AFETR","launch_vehicle":null,"mission":null,"orbit_class":"UNKNOWN","rcs_meters":44.8232,"size_class":null,"mass_kg":null,"dimensions":null,"purposes":["comms"],"wikipedia_slug":null,"has_3d_model":false,"image_url":null,"decayed_at":null,"tle_current":{"epoch":"2026-09-20T00:18:54.068256Z","epoch_age_seconds":63955,"freshness":"FRESH","line1":"1 40107U 14046A   26263.01312579 -.00000337  00000+0  00000+0 0  9996","line2":"2 40107   0.0172 138.8218 0001634  25.6089 304.5342  1.00272792103105","mean_motion":1.00272792,"eccentricity":0.0001634,"inclination_deg":0.0172,"raan_deg":138.8218,"arg_perigee_deg":25.6089,"mean_anomaly_deg":304.5342,"bstar":0,"rev_number":10310,"period_min":1436.082481876,"perigee_km":35779.422993823,"apogee_km":35793.202335973,"semimajor_km":42164.449664898,"source":"CELESTRAK","updated_at":"2026-09-20T09:00:35.211492Z"}}}